Location: Ash Swamp
(41.5170°N, 74.6157°W)
Time: 17:18:38
(UTC+00:00)

Cosmos 1825 - Pass Details

Date: 14 July 2020
Orbit: 503 x 508 km, 82.5° (Epoch: 04 August)

Event Time Altitude Azimuth Distance (km) Brightness Sun altitude
Exits shadow 03:25:54 33° 253° (WSW) 880 3.3 -22.9°
Maximum altitude 03:26:43 37° 282° (WNW) 808 3.4 -22.9°
Drops below altitude 10° 03:30:16 10° 351° (N) 1,734 5.9 -23.2°
Sets 03:32:31 0° 0° (N) 2,625 6.9 -23.4°
